Location: Newark
(52.3500°N, 175.9667°E)
Time: 10:48:43
(UTC+00:00)

Transit 4A - Pass Details

Date: 20 April 2021
Orbit: 870 x 974 km, 66.8° (Epoch: 07 May)

Event Time Altitude Azimuth Distance (km) Brightness Sun altitude
Rises 14:45:52 0° 273° (W) 3,600 - -18.2°
Exits shadow 14:47:22 - 279° (W) 3,114 10.4 -18.0°
Reaches altitude 10° 14:48:57 10° 287° (WNW) 2,639 10.0 -17.9°
Maximum altitude 14:53:53 25° 341° (NNW) 1,778 9.7 -17.4°
Drops below altitude 10° 14:58:44 10° 35° (NE) 2,584 11.5 -16.9°
Sets 15:01:43 0° 49° (NE) 3,510 12.7 -16.6°
